Temp
9 9 9 9 9 9 8 8 8 8 8 8 7 7 7 7 7 7 7 7 6 6 6 6 6 6 6 6 6 6 6 6 5 5 5 5 5 5 5 5 5 5 5 5 5 5 5 5 5 5 5 4 4 4 4 5 5 4 4 4 5 5 5 5 5 5 5 5 5
9 9 9 9 8 8 8 8 8 8 7 7 7 7 7 7 7 6 6 6 6 6 6 6 6 6 6 5 5 5 5 5 5 5 5 5 5 5 5 4 4 4 4 4 5 5 5 4 4 4 4 4 4 4 4 4 4 4 4 4 4 5 5 5 5 5 5 5 5
9 9 9 8 8 8 8 8 8 7 7 7 7 7 7 6 6 6 6 6 6 6 5 5 5 5 5 5 5 5 5 5 5 4 4 4 4 4 4 4 4 4 4 4 4 4 4 4 4 4 4 4 4 4 4 4 4 4 4 4 4 4 5 5 5 5 5 5 5
9 8 8 8 8 8 8 7 7 7 7 7 7 6 6 6 6 6 6 6 5 5 5 5 5 5 5 5 4 4 4 4 4 4 4 4 4 3 3 3 3 3 3 3 3 3 3 4 3 3 3 3 3 3 4 4 4 4 4 4 4 4 4 5 5 5 5 5 5
8 8 8 8 8 7 7 7 7 7 7 6 6 6 6 6 6 5 5 5 5 5 5 5 4 4 4 4 4 4 4 4 4 3 3 3 3 3 3 3 3 3 3 3 3 3 3 3 3 3 3 3 3 3 3 3 4 4 4 4 4 4 4 4 5 5 5 5 5
8 8 8 7 7 7 7 7 6 6 6 6 6 6 6 5 5 5 5 5 5 4 4 4 4 4 4 4 4 3 3 3 3 3 3 3 3 2 2 2 2 2 2 2 2 2 3 3 3 2 3 3 3 3 3 3 3 3 3 4 4 4 4 4 4 5 5 5 5
8 7 7 7 7 7 6 6 6 6 6 6 5 5 5 5 5 5 4 4 4 4 4 4 4 3 3 3 3 3 3 2 2 2 2 2 2 2 2 2 2 2 2 2 2 2 2 2 2 2 2 2 2 3 3 3 3 3 3 3 3 4 4 4 4 4 4 4 5
7 7 7 7 6 6 6 6 6 5 5 5 5 5 5 4 4 4 4 4 4 3 3 3 3 3 3 3 2 2 2 2 2 2 2 2 2 2 2 1 1 1 1 1 1 2 2 2 2 2 2 2 2 2 2 2 3 3 3 3 3 3 3 4 4 4 4 4 4
7 7 6 6 6 6 6 5 5 5 5 5 5 4 4 4 4 4 3 3 3 3 3 3 2 2 2 2 2 2 2 2 1 1 1 1 1 1 1 1 1 1 1 1 1 1 1 1 1 1 2 2 2 2 2 2 2 2 2 3 3 3 3 3 3 3 4 4 4
6 6 6 6 5 5 5 5 5 5 4 4 4 4 4 4 3 3 3 3 3 2 2 2 2 2 2 2 1 1 1 1 1 1 1 1 1 1 1 1 1 1 1 1 1 1 1 1 1 1 1 1 2 2 2 2 2 2 2 2 2 3 3 3 3 3 3 3 3
6 6 5 5 5 5 5 5 4 4 4 3 3 3 3 3 3 3 3 2 2 2 2 2 2 1 1 1 1 1 1 1 1 1 1 1 1 1 1 1 1 1 1 1 1 1 1 1 1 1 1 1 1 1 1 1 1 2 2 2 2 2 2 2 3 3 3 3 3
5 5 5 5 5 5 4 4 4 3 3 3 3 3 3 3 3 2 2 2 2 2 2 2 1 1 1 1 1 1 1 1 1 1 1 1 1 1 1 1 1 1 1 1 1 1 1 1 1 1 1 1 1 1 1 1 1 1 1 1 1 2 2 2 2 2 3 3 3
5 5 5 5 4 4 4 4 3 3 3 3 3 3 3 3 2 2 2 2 2 2 1 1 1 1 1 1 1 1 1 1 1 1 1 1 1 0 0 0 0 0 0 0 0 0 0 0 1 1 1 1 1 1 1 1 1 1 1 1 1 1 1 2 2 2 2 2 3
5 5 5 4 4 4 4 3 3 3 3 3 3 3 2 2 2 2 2 2 1 1 1 1 1 1 1 1 1 1 0 0 0 0 -0 -0 -0 -0 -0 -0 -0 -0 -0 -0 -0 -0 -0 0 0 0 0 0 1 1 1 1 1 1 1 1 1 1 1 1 1 2 2 2 2
5 5 4 4 4 4 3 3 3 3 3 3 3 2 2 2 2 2 1 1 1 1 1 1 1 1 0 0 0 -0 -0 -0 -0 -0 -0 -1 -1 -1 -1 -1 -1 -1 -1 -1 -1 -1 -1 -0 -0 -0 -0 -0 0 0 0 0 1 1 1 1 1 1 1 1 1 1 1 2 2
5 5 4 4 4 4 3 3 3 3 3 2 2 2 2 2 1 1 1 1 1 0 0 0 0 0 -0 -0 -0 -0 -1 -1 -1 -1 -1 -1 -1 -1 -1 -1 -1 -1 -1 -1 -1 -1 -1 -1 -1 -1 -1 -1 -0 -0 -0 -0 0 0 0 1 1 1 1 1 1 1 1 1 2
5 5 4 4 4 3 3 3 2 2 2 2 2 2 1 1 1 1 1 0 0 -0 -0 -0 -0 -0 -0 -1 -1 -1 -1 -1 -1 -1 -1 -1 -1 -1 -1 -1 -1 -1 -1 -1 -1 -1 -1 -1 -1 -1 -1 -1 -1 -1 -1 -1 -0 -0 -0 0 0 0 1 1 1 1 1 1 1
5 4 4 4 3 3 3 2 2 2 2 2 1 1 1 1 1 0 0 -0 -0 -0 -1 -1 -1 -1 -1 -1 -1 -1 -1 -1 -1 -1 -1 -1 -1 -1 -1 -1 -1 -1 -2 -2 -2 -2 -2 -2 -2 -2 -1 -1 -1 -1 -1 -1 -1 -1 -1 -0 -0 -0 0 0 1 1 1 1 1
4 4 4 3 3 2 2 2 2 2 1 1 1 1 0 0 0 -0 -0 -0 -1 -1 -1 -1 -1 -1 -1 -2 -2 -2 -2 -2 -2 -2 -2 -2 -2 -2 -2 -2 -2 -2 -2 -2 -2 -2 -2 -2 -2 -2 -2 -2 -2 -2 -2 -1 -1 -1 -1 -1 -1 -1 -0 -0 0 0 1 1 1
4 3 3 3 2 2 2 2 1 1 1 1 0 0 0 -0 -0 -0 -1 -1 -1 -1 -1 -2 -2 -2 -2 -2 -2 -2 -2 -2 -2 -2 -2 -2 -2 -2 -2 -2 -2 -2 -2 -2 -2 -2 -2 -2 -2 -2 -2 -2 -2 -2 -2 -2 -2 -2 -2 -1 -1 -1 -1 -1 -0 -0 0 0 1
3 3 3 2 2 2 2 1 1 1 1 0 0 -0 -0 -0 -1 -1 -1 -1 -1 -1 -2 -2 -2 -2 -2 -2 -2 -2 -2 -2 -2 -2 -3 -3 -3 -3 -3 -3 -3 -3 -3 -3 -3 -3 -3 -3 -3 -3 -3 -3 -3 -3 -2 -2 -2 -2 -2 -2 -2 -2 -2 -1 -1 -1 -1 -0 -0
3 3 2 2 2 2 1 1 1 0 0 0 -0 -0 -0 -1 -1 -1 -1 -1 -2 -2 -2 -2 -2 -2 -2 -2 -3 -3 -3 -3 -3 -3 -3 -3 -3 -3 -3 -3 -3 -3 -3 -3 -3 -3 -3 -3 -3 -3 -3 -3 -3 -3 -3 -3 -3 -3 -3 -3 -3 -2 -2 -2 -2 -2 -1 -1 -1
3 3 2 2 2 1 1 1 0 0 0 -0 -0 -0 -1 -1 -1 -1 -1 -2 -2 -2 -2 -2 -3 -3 -3 -3 -3 -3 -3 -3 -3 -3 -3 -3 -4 -4 -4 -3 -3 -3 -3 -3 -3 -3 -4 -4 -4 -4 -4 -4 -4 -3 -3 -3 -3 -3 -3 -3 -3 -3 -3 -2 -2 -2 -2 -2 -1
3 2 2 2 1 1 1 0 0 0 -0 -0 -0 -1 -1 -1 -1 -1 -2 -2 -2 -2 -3 -3 -3 -3 -3 -3 -3 -4 -4 -3 -4 -4 -4 -4 -4 -4 -4 -4 -4 -4 -4 -4 -4 -4 -4 -4 -4 -4 -4 -4 -4 -4 -3 -3 -3 -3 -3 -3 -3 -3 -3 -3 -2 -2 -2 -2 -2
2 2 2 1 1 1 0 0 0 -0 -0 -0 -1 -1 -1 -1 -1 -2 -2 -2 -2 -3 -3 -3 -3 -3 -4 -4 -4 -4 -4 -4 -4 -4 -4 -4 -4 -4 -4 -4 -4 -4 -4 -4 -4 -4 -4 -4 -4 -4 -4 -4 -4 -4 -4 -3 -3 -3 -3 -3 -3 -3 -3 -2 -2 -2 -2 -2 -2
2 2 1 1 1 0 0 0 -0 -0 -1 -1 -1 -1 -1 -1 -2 -2 -2 -2 -3 -3 -3 -3 -3 -4 -4 -4 -4 -4 -4 -4 -4 -4 -4 -4 -4 -4 -4 -4 -4 -5 -5 -5 -5 -5 -5 -5 -5 -4 -4 -4 -4 -4 -4 -4 -3 -3 -3 -3 -3 -3 -3 -3 -2 -2 -2 -2 -2
2 1 1 1 0 0 0 -0 -0 -1 -1 -1 -1 -1 -1 -2 -2 -2 -2 -3 -3 -3 -3 -4 -4 -4 -4 -4 -4 -4 -4 -4 -4 -4 -4 -4 -5 -5 -5 -5 -5 -5 -5 -5 -5 -5 -5 -5 -5 -5 -5 -5 -4 -4 -4 -4 -4 -4 -3 -3 -3 -3 -3 -3 -3 -2 -2 -2 -2
1 1 1 0 0 -0 -0 -0 -1 -1 -1 -1 -1 -2 -2 -2 -2 -3 -3 -3 -3 -3 -4 -4 -4 -4 -4 -3 -3 -4 -4 -4 -4 -4 -5 -5 -5 -5 -5 -5 -5 -5 -5 -5 -5 -5 -5 -5 -5 -5 -5 -5 -5 -4 -4 -4 -4 -4 -4 -3 -3 -3 -3 -3 -3 -3 -3 -2 -2
1 1 0 0 -0 -0 -1 -1 -1 -1 -2 -2 -2 -2 -2 -3 -3 -3 -3 -3 -3 -4 -4 -3 -3 -4 -4 -4 -4 -4 -4 -4 -4 -5 -5 -5 -5 -5 -5 -5 -5 -5 -5 -5 -5 -5 -5 -5 -5 -5 -5 -5 -5 -5 -4 -4 -4 -4 -4 -3 -3 -3 -3 -3 -3 -3 -3 -3 -2
1 0 -0 -0 -1 -1 -1 -1 -1 -2 -2 -2 -2 -3 -3 -3 -3 -3 -3 -3 -3 -3 -3 -4 -4 -4 -4 -4 -4 -4 -4 -4 -5 -5 -5 -5 -5 -5 -5 -5 -5 -5 -5 -5 -5 -5 -5 -5 -5 -5 -5 -5 -5 -5 -4 -4 -4 -4 -4 -3 -3 -3 -3 -3 -3 -3 -3 -3 -3
0 -0 -1 -1 -1 -1 -2 -2 -2 -2 -3 -3 -3 -3 -3 -3 -3 -3 -3 -3 -3 -4 -4 -4 -4 -4 -4 -4 -4 -4 -4 -4 -5 -5 -5 -5 -5 -5 -5 -5 -5 -5 -5 -5 -5 -5 -5 -5 -5 -5 -5 -5 -5 -5 -4 -4 -4 -4 -4 -4 -3 -3 -3 -3 -3 -3 -3 -3 -3
-0 -1 -1 -1 -2 -2 -2 -2 -2 -3 -3 -3 -3 -4 -4 -3 -3 -3 -3 -4 -4 -4 -4 -4 -4 -4 -4 -4 -4 -4 -5 -5 -5 -5 -5 -5 -5 -5 -5 -5 -5 -5 -5 -5 -5 -5 -5 -5 -5 -5 -5 -5 -5 -5 -4 -4 -4 -4 -4 -4 -4 -3 -3 -3 -3 -3 -3 -3 -3
-0 -1 -1 -2 -2 -2 -2 -3 -3 -3 -4 -4 -4 -4 -4 -4 -4 -4 -4 -4 -4 -4 -4 -4 -4 -4 -4 -4 -5 -5 -5 -5 -5 -5 -6 -5 -5 -5 -5 -5 -5 -5 -5 -5 -5 -5 -5 -5 -5 -5 -5 -5 -5 -4 -4 -4 -4 -4 -4 -4 -4 -3 -3 -3 -3 -3 -3 -3 -3
-1 -2 -2 -2 -2 -3 -3 -3 -3 -4 -4 -4 -4 -4 -4 -4 -4 -4 -4 -4 -4 -4 -5 -5 -5 -5 -5 -5 -5 -5 -5 -6 -6 -6 -6 -6 -5 -5 -5 -5 -5 -5 -5 -5 -5 -5 -5 -5 -5 -5 -5 -4 -4 -4 -4 -4 -4 -4 -4 -4 -3 -3 -3 -3 -3 -3 -3 -3 -3
-2 -2 -3 -3 -3 -3 -3 -4 -4 -4 -4 -4 -4 -4 -4 -4 -4 -4 -4 -5 -5 -5 -5 -5 -5 -5 -5 -5 -5 -5 -6 -6 -6 -6 -6 -6 -6 -6 -5 -5 -5 -5 -5 -5 -5 -5 -5 -5 -5 -5 -4 -4 -4 -4 -4 -4 -4 -4 -4 -3 -3 -3 -3 -3 -3 -3 -3 -3 -3
-2 -3 -3 -3 -3 -4 -4 -4 -4 -4 -4 -4 -4 -4 -4 -4 -4 -4 -5 -5 -5 -5 -5 -5 -5 -5 -5 -5 -5 -6 -6 -6 -6 -6 -6 -6 -6 -6 -6 -5 -5 -5 -5 -5 -5 -5 -5 -5 -4 -4 -4 -4 -4 -4 -4 -4 -4 -3 -3 -3 -3 -3 -3 -3 -3 -3 -3 -3 -3
-3 -3 -4 -4 -4 -4 -4 -4 -4 -4 -4 -4 -4 -4 -5 -4 -5 -5 -5 -5 -5 -5 -5 -5 -5 -5 -5 -5 -6 -6 -6 -6 -6 -6 -6 -6 -6 -6 -6 -5 -5 -5 -5 -5 -5 -5 -5 -4 -4 -4 -4 -4 -4 -4 -4 -3 -3 -3 -3 -3 -3 -3 -3 -3 -3 -3 -3 -3 -3
-3 -4 -4 -4 -4 -4 -5 -5 -5 -5 -5 -5 -5 -5 -5 -5 -5 -5 -5 -5 -5 -5 -5 -5 -5 -6 -6 -6 -6 -6 -6 -6 -6 -6 -6 -6 -6 -6 -6 -5 -5 -5 -5 -5 -4 -4 -4 -4 -4 -4 -4 -4 -3 -3 -3 -3 -3 -3 -3 -3 -2 -2 -3 -3 -3 -3 -3 -3 -3
-4 -4 -4 -5 -5 -5 -5 -5 -5 -5 -5 -5 -5 -5 -5 -5 -5 -5 -5 -5 -5 -5 -5 -6 -6 -6 -6 -6 -6 -6 -6 -6 -6 -6 -6 -6 -6 -6 -5 -5 -5 -5 -5 -5 -4 -4 -4 -4 -4 -4 -3 -3 -3 -3 -3 -3 -3 -2 -2 -2 -2 -2 -2 -2 -2 -2 -3 -3 -3
-4 -4 -5 -5 -5 -5 -5 -5 -5 -5 -5 -5 -5 -5 -5 -5 -5 -5 -5 -5 -6 -6 -6 -6 -6 -6 -6 -6 -6 -6 -6 -6 -6 -6 -6 -6 -6 -5 -5 -5 -5 -5 -5 -4 -4 -4 -4 -4 -3 -3 -3 -3 -3 -3 -2 -2 -2 -2 -2 -2 -2 -2 -2 -2 -2 -2 -2 -3 -3
-4 -5 -5 -5 -6 -6 -5 -5 -5 -5 -5 -5 -5 -5 -5 -5 -5 -6 -6 -6 -6 -6 -6 -6 -6 -6 -6 -6 -6 -6 -6 -6 -6 -6 -6 -6 -5 -5 -5 -5 -5 -5 -4 -4 -4 -3 -3 -3 -3 -3 -3 -2 -2 -2 -2 -2 -2 -2 -1 -1 -1 -1 -1 -1 -2 -2 -2 -2 -3
Height
797 797 797 797 797 797 797 797 797 797 797 797 797 797 797 797 796 796 796 795 795 794 794 793 793 792 792 792 791 791 790 790 789 789 788 787 787 786 785 785 784 783 782 782 781 780 780 779 778 777 776 775 774 773 772 772 771 771 770 769 768 768 767 766 765 765 764 764 763
796 796 796 796 796 796 796 796 796 796 796 796 796 796 796 796 795 795 794 794 793 793 792 792 791 791 791 790 790 789 788 788 787 787 786 785 784 783 783 782 781 781 780 779 778 778 777 776 775 774 773 772 772 771 769 769 768 768 767 766 766 765 765 764 763 762 762 762 761
795 795 795 796 796 796 796 796 796 796 796 796 795 795 795 794 794 794 793 792 792 791 791 790 790 789 789 788 787 787 786 785 785 784 783 782 782 781 780 779 778 778 777 777 776 775 774 773 773 772 771 770 769 768 767 766 766 765 764 763 763 763 762 761 760 760 760 759 758
795 795 795 795 795 795 795 795 795 795 795 795 794 794 794 793 793 792 792 791 791 790 789 788 788 787 787 786 785 784 784 783 782 781 780 779 779 778 777 776 776 775 774 773 772 772 771 771 770 769 767 767 766 765 764 763 763 762 762 761 760 760 759 758 757 757 757 756 756
794 794 794 794 794 794 794 794 794 794 794 793 793 793 792 792 791 791 790 790 789 788 787 787 786 785 784 783 783 782 781 780 779 778 777 777 776 775 774 773 772 772 771 770 769 768 768 767 767 766 765 764 763 762 761 761 760 759 759 758 757 757 756 755 755 754 754 753 753
793 793 793 793 793 793 793 793 793 793 793 792 792 792 791 791 790 789 789 788 787 786 785 784 783 782 782 781 780 779 778 777 777 776 775 773 773 772 771 770 769 768 767 767 766 765 765 764 764 762 762 761 760 758 758 758 757 756 756 755 754 753 753 752 752 751 751 750 750
793 793 793 793 793 792 792 792 792 792 792 791 791 791 790 789 789 788 787 786 785 784 783 782 781 780 779 778 777 776 776 774 773 773 772 771 770 769 768 767 766 765 764 763 763 762 762 761 761 759 758 758 757 756 755 755 754 753 752 752 751 750 750 749 748 748 747 747 746
792 792 792 792 792 792 792 791 791 791 791 790 790 789 788 787 787 786 785 784 782 782 780 779 778 777 777 776 775 774 773 772 771 770 769 768 767 766 765 764 763 762 761 760 759 759 758 758 757 756 756 755 753 752 752 752 751 750 749 748 747 747 747 746 745 745 744 743 743
791 791 791 791 791 791 791 791 790 790 789 788 788 787 786 785 784 783 782 781 780 779 778 777 776 775 774 773 772 771 770 769 768 767 766 765 764 763 762 761 760 759 758 757 757 756 755 755 754 753 752 752 750 749 748 748 748 747 746 746 745 744 743 743 742 742 741 741 740
791 791 791 791 790 790 790 789 789 788 787 787 786 785 784 783 782 781 780 779 777 776 775 774 773 772 772 771 769 768 767 767 765 764 763 762 762 761 759 758 757 757 756 755 754 754 753 752 751 749 748 748 747 746 745 745 745 744 743 742 742 741 740 739 739 739 738 737 737
790 790 790 790 789 789 788 788 787 786 785 784 783 782 781 780 779 778 777 776 775 774 773 772 771 770 769 768 767 766 765 764 763 762 761 760 759 758 757 756 755 754 753 752 752 751 750 749 747 746 745 744 743 742 742 741 741 740 740 739 738 737 737 736 736 736 735 734 734
789 789 789 788 788 787 787 786 785 784 783 782 781 780 779 778 777 776 775 774 773 772 771 770 769 768 767 766 765 764 763 762 761 760 759 757 756 755 754 753 752 751 750 749 748 748 747 746 744 743 742 741 741 740 739 738 737 737 736 735 735 734 733 732 732 732 732 731 731
788 788 787 787 786 785 784 783 783 782 781 780 779 778 777 777 776 775 773 772 772 771 769 768 767 767 766 764 763 762 761 760 758 757 756 754 753 752 751 750 748 747 747 746 745 745 744 742 741 740 739 738 737 737 736 735 734 734 733 732 731 731 730 729 728 728 728 728 727
787 786 785 785 784 783 782 782 781 780 779 778 777 777 776 775 774 773 772 771 770 769 767 766 765 764 763 762 761 759 758 757 756 754 753 751 750 749 748 747 746 745 744 743 742 741 741 739 738 737 736 735 734 733 732 732 731 730 729 728 727 727 726 725 725 725 725 724 724
785 784 783 783 782 781 781 780 779 778 777 777 776 775 774 773 772 771 770 769 768 767 766 764 763 762 761 760 758 757 756 754 753 752 750 748 747 746 745 744 742 742 741 740 739 738 737 736 735 734 733 732 731 730 729 729 728 727 726 725 724 723 722 722 722 721 721 721 720
783 782 782 781 780 779 779 778 777 777 776 775 774 773 772 771 770 769 768 767 766 764 763 762 761 759 758 757 756 754 753 752 750 749 747 746 744 743 742 741 740 739 738 737 736 735 734 733 732 731 730 729 728 727 726 725 724 723 722 722 721 720 719 718 718 717 717 717 717
781 780 780 779 778 778 777 777 776 775 774 773 772 771 770 769 768 767 766 765 763 762 761 759 758 757 755 754 752 752 750 749 747 746 744 743 742 740 739 738 737 736 735 734 732 731 730 730 729 728 727 726 725 724 722 722 721 720 719 718 717 716 715 715 714 714 714 713 713
779 778 778 777 777 777 776 775 774 773 772 772 770 769 768 767 766 765 763 762 761 760 758 757 755 754 753 751 750 749 747 746 744 743 742 740 739 737 736 735 734 733 732 731 729 728 727 726 726 725 724 723 722 721 719 718 717 716 715 714 713 713 712 711 711 710 710 710 709
777 777 777 776 776 775 774 773 772 772 771 770 768 767 766 765 764 762 761 760 759 757 756 754 752 751 750 748 747 746 745 743 742 740 738 737 736 735 733 732 731 730 729 727 726 725 724 723 722 722 721 720 718 717 716 715 714 713 712 711 710 709 708 708 707 707 707 706 706
776 776 775 775 774 773 772 772 771 770 769 767 766 765 764 762 761 760 758 757 756 755 753 752 750 748 747 746 744 743 742 740 739 737 736 734 733 732 730 729 728 727 725 724 723 722 721 720 719 718 717 716 715 714 712 712 711 710 708 707 707 706 705 704 704 703 703 702 702
775 774 774 773 772 772 771 770 769 768 767 765 764 763 762 760 759 757 756 755 753 752 751 749 748 746 744 743 742 740 738 737 736 734 733 731 730 729 727 727 725 723 722 721 720 719 718 717 716 715 714 713 712 711 709 708 707 706 705 704 703 702 702 701 701 700 700 699 699
773 773 772 771 771 770 769 768 767 766 764 763 762 761 759 758 757 755 754 752 751 749 748 747 745 744 742 741 739 737 736 734 733 732 730 729 727 726 725 724 722 721 719 718 717 716 715 713 712 712 711 710 708 707 706 705 704 703 702 701 700 699 698 698 697 697 696 696 695
772 771 770 770 769 768 767 766 765 764 762 761 760 758 757 756 754 752 751 750 748 747 746 744 743 741 740 738 737 735 733 731 729 728 727 726 725 723 722 721 720 718 716 715 714 713 712 710 709 708 707 707 705 704 703 702 701 700 699 697 697 696 695 694 694 693 693 692 692
770 769 768 768 767 766 765 764 763 762 760 759 758 757 755 753 752 750 749 747 746 744 743 742 740 739 737 735 734 732 731 729 727 725 723 723 722 721 719 718 717 715 713 712 711 710 709 708 707 706 705 704 702 701 700 699 698 697 696 694 693 692 692 691 690 690 689 689 688
768 767 767 766 765 764 763 762 761 760 758 757 756 754 753 751 750 748 747 745 743 742 741 739 737 736 734 733 731 730 728 727 725 723 721 720 719 718 717 716 714 712 711 709 708 707 707 706 705 704 702 701 700 698 697 696 695 694 693 692 691 689 688 687 687 686 686 685 685
767 766 765 764 763 762 762 761 759 758 757 756 754 752 751 749 748 746 745 743 741 740 738 737 735 733 732 730 728 727 726 724 722 721 719 717 716 715 714 713 712 710 708 706 705 704 703 703 702 701 700 699 697 696 695 693 692 691 690 689 688 687 685 684 683 682 682 682 681
765 764 763 762 762 761 760 759 758 757 755 754 752 751 749 747 746 744 743 741 739 738 736 735 733 731 730 728 726 725 723 722 720 719 717 716 714 712 711 710 708 707 705 703 702 701 700 699 699 698 697 696 695 693 692 690 689 688 687 686 685 684 682 681 680 679 679 678 677
763 762 762 761 760 759 758 757 756 755 754 752 751 749 747 746 744 742 741 739 737 736 734 732 731 729 728 726 724 722 721 719 718 717 715 713 712 710 709 707 706 704 702 700 699 698 697 696 695 695 694 693 692 691 689 687 686 685 684 682 681 680 679 678 677 676 675 675 674
762 761 760 759 758 757 756 756 754 753 752 750 749 747 745 744 742 740 739 737 735 734 732 731 729 727 726 724 722 720 719 717 716 714 712 711 709 707 706 704 702 700 699 697 696 695 694 693 692 691 690 690 689 687 686 685 683 682 680 679 677 676 675 674 673 672 672 671 671
760 759 758 757 757 756 755 754 753 752 750 748 747 745 743 742 740 738 737 735 734 732 731 729 727 726 724 722 720 718 717 715 713 712 710 708 707 705 703 702 699 697 695 694 693 692 690 689 688 687 686 686 685 684 683 681 680 678 677 675 674 673 672 671 670 669 668 668 667
759 758 757 756 755 754 753 752 751 750 748 747 745 743 742 740 738 737 735 734 732 730 728 727 725 723 722 720 718 716 714 712 711 710 708 707 704 702 700 698 697 694 692 691 689 688 687 686 684 683 682 681 681 680 679 677 676 675 673 672 670 669 668 667 666 665 665 664 664
758 757 756 755 754 753 752 750 749 747 746 745 743 741 740 738 737 735 733 732 730 728 726 724 723 721 719 717 716 714 712 711 709 707 706 704 702 700 697 695 693 691 689 687 686 685 683 682 681 679 678 677 677 676 675 673 672 671 669 667 666 665 664 663 662 661 661 661 660
756 756 755 754 752 751 750 748 747 746 744 742 741 739 738 736 734 732 731 730 728 726 724 722 721 719 717 715 713 712 710 708 707 705 703 701 699 697 695 692 690 688 686 684 683 681 680 678 677 676 674 673 672 672 670 669 668 666 664 663 661 660 659 659 658 657 657 656 656
755 754 753 752 751 749 748 746 745 743 742 740 739 737 736 734 732 731 729 727 726 724 722 721 719 717 715 713 712 710 708 706 704 702 700 698 697 695 692 690 687 685 683 681 680 678 677 675 673 672 671 669 668 667 666 664 663 662 660 658 657 656 655 654 653 652 652 652 652
754 753 752 750 749 747 746 745 743 742 740 738 737 735 734 732 731 729 727 726 724 722 720 718 717 715 713 712 710 708 706 703 701 699 698 696 694 692 690 687 684 682 680 678 677 675 673 672 670 668 667 666 664 663 662 660 658 657 655 653 652 651 650 649 648 647 647 647 647
752 752 750 748 747 746 744 743 742 740 738 737 735 733 732 730 729 727 726 724 722 720 718 716 715 713 711 709 707 706 704 702 699 697 695 693 692 689 687 684 681 678 676 675 673 672 670 668 666 664 663 662 661 659 657 656 654 652 650 648 647 645 644 644 643 642 642 642 641
751 750 749 747 746 744 743 742 740 738 737 735 733 732 730 728 727 725 724 722 721 718 716 714 713 711 709 707 705 703 701 699 697 695 692 691 689 687 684 682 678 676 673 672 670 668 667 665 663 661 659 658 657 655 653 651 649 647 645 643 642 640 639 638 637 637 636 636 636
750 749 747 746 744 743 741 740 738 737 735 733 732 730 729 727 725 724 722 721 719 717 714 712 711 709 707 705 703 701 698 697 695 693 691 688 687 685 682 679 676 673 670 668 667 665 663 661 659 657 656 655 653 651 649 647 645 642 641 638 637 635 634 633 632 631 630 629 629
748 747 746 745 743 742 740 738 737 736 734 732 730 729 727 726 724 722 721 719 718 716 713 711 709 707 705 703 701 698 696 694 692 690 688 686 684 682 680 677 674 671 668 666 664 662 660 657 655 654 652 651 649 647 645 643 640 638 636 634 632 630 628 627 627 625 624 623 623
747 746 745 743 742 740 739 737 736 734 733 731 729 727 726 724 722 721 719 718 716 714 712 710 707 705 703 701 699 697 693 691 689 687 686 684 681 679 677 675 672 668 665 662 661 658 656 654 652 650 648 647 645 643 641 639 636 634 632 630 628 626 623 622 621 620 618 617 617
746 744 743 742 741 739 737 736 734 732 731 730 728 726 724 722 721 719 717 716 714 713 711 708 706 703 702 700 697 695 692 689 686 684 683 681 678 676 674 672 669 666 662 660 657 655 653 651 649 647 645 644 642 640 638 636 633 631 628 626 624 622 619 617 616 614 613 612 612
Wind_Speed
3 3 3 4 4 5 5 6 6 7 7 8 8 9 9 10 11 12 12 13 13 14 15 15 16 16 17 17 17 18 19 19 20 21 22 22 23 24 24 25 25 26 26 27 27 27 27 27 27 27 26 25 25 25 25 25 25 25 25 25 24 24 24 24 24 23 22 21 20
3 3 4 4 5 6 6 7 7 8 8 9 9 10 11 12 12 13 14 14 15 15 16 17 17 17 18 18 19 19 20 21 21 22 23 23 24 24 25 25 25 26 26 27 27 28 28 28 28 27 25 24 23 23 24 25 26 26 26 26 25 24 23 23 23 23 23 22 21
4 4 5 5 5 6 7 7 8 9 9 10 11 11 12 13 13 14 15 16 16 17 17 18 18 19 19 20 20 21 21 22 22 23 23 24 24 25 25 25 26 26 26 26 27 27 28 28 28 27 25 23 23 22 23 23 24 24 25 25 25 23 23 22 22 22 22 21 21
4 4 4 5 6 6 7 8 9 10 10 11 12 13 13 14 14 15 16 17 18 18 18 19 19 20 20 21 21 22 22 23 23 24 24 24 24 25 26 26 26 26 27 27 27 27 27 28 28 27 26 25 24 23 23 22 22 23 23 24 24 23 23 22 22 22 21 21 21
4 4 5 5 6 7 8 9 9 10 11 12 13 14 14 15 16 16 17 18 18 19 19 20 20 21 21 22 22 22 23 23 24 24 24 24 25 25 25 26 26 27 27 27 27 27 27 27 27 27 26 25 24 23 24 24 23 23 23 23 23 23 23 23 23 22 22 23 22
4 4 5 6 6 7 8 9 9 10 11 12 13 14 15 16 17 17 18 18 19 20 20 21 21 22 22 22 23 23 23 24 24 24 24 25 25 25 25 25 26 26 27 27 28 28 28 27 27 26 25 23 24 24 25 24 24 24 24 24 23 23 23 23 23 23 24 24 24
4 5 5 6 7 7 8 9 10 11 12 13 14 15 16 17 17 18 18 19 20 21 21 21 22 22 22 22 23 23 23 23 23 23 23 24 24 24 25 25 25 26 27 28 28 28 28 28 26 25 23 23 23 23 23 23 23 24 24 24 24 24 24 24 24 24 25 25 26
4 5 5 6 7 8 8 9 10 12 13 14 15 16 16 17 18 19 19 20 20 21 21 21 21 22 22 23 23 23 23 23 24 23 23 23 23 24 24 25 25 26 26 27 27 27 27 26 25 24 23 22 22 23 23 23 24 24 25 25 25 25 25 25 25 25 26 27 27
4 5 5 6 7 8 9 10 11 13 14 15 16 17 17 18 19 19 20 20 21 21 21 21 21 22 23 23 24 24 24 23 23 22 22 21 22 22 22 22 22 23 23 24 24 24 24 24 23 23 24 23 24 24 25 25 25 26 26 26 26 27 26 26 26 26 27 27 28
4 5 6 7 8 9 10 12 13 14 15 16 17 18 18 19 20 20 20 21 21 22 22 22 22 23 23 23 23 23 22 22 22 22 22 22 22 23 23 23 24 24 24 23 23 23 23 23 23 24 25 25 26 27 28 28 28 28 28 28 27 28 28 28 28 28 28 28 29
5 5 7 8 9 11 12 13 14 15 15 16 17 18 19 20 20 20 21 21 21 21 22 22 22 21 21 21 21 21 21 21 21 22 23 23 24 24 24 25 25 25 25 25 24 24 24 24 24 25 25 26 26 27 27 28 29 29 29 29 29 29 30 30 30 30 30 30 30
5 6 8 9 11 12 14 15 15 15 15 16 17 18 19 19 19 20 20 20 20 20 20 20 20 20 20 20 21 22 22 23 23 24 24 25 25 25 25 25 25 26 26 26 25 24 24 24 25 26 26 27 26 26 26 27 27 29 29 30 30 30 31 31 32 31 31 30 30
7 8 10 11 13 15 16 16 16 16 16 17 18 18 18 18 18 19 19 19 20 20 20 20 20 21 21 22 23 23 24 24 24 24 25 25 26 26 26 26 26 26 26 25 25 24 24 25 25 26 27 28 27 27 27 27 27 28 29 30 30 31 31 32 32 32 32 31 31
9 11 12 14 16 17 17 17 17 17 18 18 19 19 19 19 19 18 18 20 21 21 22 22 22 22 22 23 24 24 24 25 25 25 25 26 26 26 26 26 26 26 25 25 25 25 25 26 26 27 27 28 28 29 29 29 29 29 30 30 31 32 32 32 33 32 32 32 33
12 13 15 17 18 18 18 18 18 18 18 18 19 19 19 19 20 20 20 21 22 23 23 23 23 23 23 24 24 25 25 25 25 25 26 26 26 26 26 27 26 26 26 26 26 26 26 27 27 27 28 28 29 29 29 29 30 30 31 31 32 32 33 33 33 33 33 33 33
14 16 18 19 20 20 19 19 19 19 19 19 20 20 20 21 21 21 22 22 23 23 23 24 24 25 25 25 25 25 25 25 25 26 26 26 27 27 27 27 27 27 27 27 27 27 27 27 27 27 28 29 29 30 30 30 31 31 32 32 33 33 34 34 34 34 34 34 34
16 18 20 20 20 20 20 19 19 19 20 21 21 21 22 22 22 22 23 23 24 24 25 25 26 26 26 27 26 26 26 26 26 26 26 27 27 28 28 28 29 28 28 28 28 29 29 29 28 28 28 29 30 30 31 31 32 32 32 33 33 34 34 35 34 34 34 34 35
18 19 20 21 20 20 20 20 20 20 21 21 22 22 22 23 23 24 24 25 25 25 26 27 27 27 27 28 28 27 26 27 27 27 28 28 28 29 29 29 29 29 29 29 29 29 30 30 30 29 29 30 30 31 31 31 32 32 33 33 34 34 35 35 35 35 35 35 35
18 19 20 20 19 20 20 20 21 21 21 22 22 23 23 24 25 25 26 26 26 26 27 27 28 28 28 28 28 28 28 28 28 28 29 29 29 29 29 30 30 30 30 30 30 30 30 30 30 30 30 30 30 31 31 32 32 32 33 33 34 34 35 35 35 35 35 35 36
18 19 19 19 20 20 21 21 21 22 22 23 23 24 25 25 26 26 27 27 27 27 27 27 28 29 29 29 29 29 29 28 29 29 29 30 30 30 30 30 30 30 30 30 30 30 30 30 30 30 30 30 31 31 31 32 32 32 33 33 34 34 34 35 35 35 36 36 36
18 18 19 20 20 21 21 22 22 23 23 23 24 25 26 26 27 27 28 28 28 28 28 28 29 29 30 30 30 30 30 30 29 29 30 30 30 30 30 30 30 30 30 30 30 30 30 30 30 30 30 30 30 31 31 31 32 32 32 33 33 33 34 34 35 35 36 36 36
18 19 20 20 21 21 22 22 23 23 24 24 25 25 26 27 28 28 29 29 29 29 29 29 29 29 29 30 30 31 31 31 31 30 30 30 30 30 30 29 29 30 30 30 30 30 30 29 29 29 29 29 30 30 31 31 31 31 32 33 33 33 34 34 34 35 35 36 36
19 20 21 21 21 22 23 23 23 24 24 25 25 26 27 28 29 29 30 29 29 29 29 29 29 29 29 30 30 31 31 31 32 31 30 29 29 29 29 29 29 29 29 29 29 28 28 28 28 28 28 28 28 29 29 30 30 30 31 32 32 33 33 33 34 34 35 35 36
20 21 21 21 22 23 23 23 24 24 24 25 26 26 27 28 29 30 30 30 30 30 30 29 29 30 30 30 30 30 30 31 31 31 31 29 29 28 28 28 28 28 28 28 27 26 26 26 26 26 26 26 26 27 28 28 28 28 29 30 30 31 31 32 33 33 33 34 35
21 21 22 22 22 23 23 24 24 24 25 26 26 27 27 28 29 29 29 30 30 30 30 30 30 30 30 29 30 29 29 28 29 30 30 30 29 28 28 27 27 27 27 27 27 28 28 27 27 27 27 27 27 26 27 27 27 28 29 29 29 30 30 31 31 31 32 33 34
21 22 22 22 23 23 24 24 24 25 25 26 27 27 27 28 28 29 29 30 30 30 30 30 30 29 29 29 29 28 28 27 27 28 28 28 29 29 28 28 27 27 27 28 28 29 29 30 30 30 30 30 29 29 29 29 29 29 30 30 30 30 31 31 31 32 32 32 33
21 22 22 23 23 24 24 24 25 25 26 26 27 27 27 28 28 28 29 29 30 30 30 29 29 28 28 27 27 27 27 27 27 28 28 28 29 29 28 28 28 27 28 29 30 30 31 31 32 32 32 31 30 30 30 30 30 31 31 31 31 32 32 32 33 33 32 32 32
21 22 23 24 24 24 25 25 25 25 26 26 27 27 27 28 28 28 28 29 29 29 28 27 27 26 25 26 27 27 27 28 28 27 27 27 28 29 29 28 28 28 29 30 31 32 32 33 33 33 33 33 32 31 31 31 31 31 31 31 31 32 32 33 33 33 33 33 32
22 22 23 24 25 25 25 25 25 26 26 26 27 27 27 27 28 28 28 28 28 27 26 26 26 26 26 27 28 28 28 28 28 27 27 27 28 29 29 29 30 30 31 32 33 33 34 34 34 35 35 34 33 32 32 31 30 30 30 30 30 31 32 32 32 32 32 32 32
22 23 23 24 25 25 25 26 26 26 26 26 26 26 27 27 27 27 27 27 27 27 26 26 26 27 28 28 28 28 28 28 27 27 27 28 29 30 30 30 30 31 32 33 34 34 35 35 35 36 36 36 35 33 32 32 31 31 31 31 31 32 32 32 33 33 33 32 32
22 23 23 24 25 25 25 26 26 26 26 26 26 26 26 26 27 27 27 27 27 27 27 27 27 27 28 28 28 27 28 28 28 28 28 28 29 30 31 31 32 33 34 34 35 35 35 36 36 36 36 36 36 34 32 32 32 32 32 32 32 33 33 33 33 34 34 33 33
23 23 23 24 24 25 26 26 26 26 26 26 26 26 26 26 26 27 27 26 27 27 27 27 28 28 28 28 28 28 28 28 28 29 29 29 30 31 32 32 33 33 34 35 35 35 35 36 36 36 37 37 36 35 34 34 33 33 33 34 35 35 35 35 35 35 35 35 34
23 23 23 23 24 25 26 26 26 26 26 26 26 26 26 26 27 27 27 27 26 26 26 27 27 28 28 28 28 28 29 29 29 29 30 30 30 31 32 33 33 33 34 34 35 35 36 36 37 37 38 38 37 36 34 34 34 33 33 35 36 36 36 36 37 37 37 36 36
23 23 23 23 24 25 25 26 26 25 25 26 26 26 26 26 27 27 27 26 26 26 26 26 26 26 27 27 27 28 29 29 29 30 30 31 31 31 31 32 32 33 34 35 36 36 37 37 38 38 39 39 38 36 34 33 33 34 34 35 36 36 36 37 38 38 38 38 38
22 22 23 24 25 25 25 25 25 25 25 26 26 27 27 26 26 26 26 26 26 26 26 26 26 26 26 27 27 28 29 29 30 30 31 31 31 31 32 33 34 35 36 36 37 37 38 38 38 39 39 39 37 35 33 33 32 33 34 35 36 37 38 38 38 38 39 39 39
21 22 23 24 25 25 25 25 25 25 25 26 26 27 27 27 26 26 26 26 26 26 26 26 26 26 27 27 28 28 29 29 30 31 31 31 31 31 32 33 35 36 37 37 37 38 38 38 39 39 39 38 35 32 31 31 31 31 33 34 35 36 38 38 38 38 39 39 39
21 22 22 23 24 24 24 24 24 24 25 26 26 26 26 26 26 26 26 25 25 26 26 27 27 27 28 28 29 29 30 30 30 31 31 32 32 32 32 33 35 36 37 38 38 38 38 38 39 39 38 37 34 32 30 30 29 30 31 32 33 35 36 36 37 37 38 40 40
21 21 21 22 22 23 23 23 23 24 25 25 26 26 26 26 26 26 25 24 24 26 27 27 27 28 28 29 29 30 31 31 30 30 31 32 32 32 32 33 34 36 37 38 38 38 38 38 39 39 38 36 34 32 30 29 29 30 30 31 32 33 34 34 34 35 37 39 40
21 21 21 21 21 22 22 23 23 23 24 25 26 26 26 26 25 25 25 24 24 25 26 27 28 28 29 29 29 30 31 31 31 30 31 31 32 32 32 32 34 36 37 38 37 38 38 39 39 39 39 38 35 32 30 28 29 29 29 30 30 31 32 32 33 34 35 38 40
21 21 20 20 20 21 22 22 23 23 24 24 25 26 26 25 25 25 25 24 24 25 26 27 28 29 29 29 29 30 31 31 31 31 31 31 32 33 33 33 34 35 36 37 37 38 38 38 38 39 39 37 35 31 28 26 26 27 27 28 28 28 29 30 31 32 33 35 37
21 20 20 20 20 20 21 22 23 24 24 24 24 25 25 25 25 24 24 24 25 25 26 26 28 29 29 29 29 29 30 31 32 32 32 32 33 33 33 32 33 34 35 36 37 37 37 37 38 38 37 36 33 29 26 25 24 25 26 27 27 27 27 28 29 30 31 33 33
Wind_Direction
298 313 326 333 335 337 338 338 338 338 336 333 330 328 326 323 321 319 318 317 314 312 311 310 309 308 308 307 305 303 302 300 299 298 296 295 294 294 294 293 293 293 292 292 292 291 290 289 287 285 283 280 279 278 277 275 275 273 271 267 264 262 260 257 256 254 253 252 252
300 312 320 325 328 330 331 332 333 333 332 329 328 325 323 321 318 317 315 314 313 311 309 308 307 307 306 304 303 301 298 297 296 294 293 292 291 291 291 290 290 290 289 289 289 288 287 287 286 284 281 278 276 274 274 274 274 273 271 269 266 263 261 258 256 255 253 252 252
297 307 315 320 325 328 329 329 328 327 326 325 324 322 320 318 316 314 313 312 311 310 308 306 305 304 303 301 299 297 295 294 292 291 290 289 288 288 288 288 288 288 287 286 285 285 285 284 283 281 278 276 273 271 270 271 270 270 269 268 266 263 261 258 257 256 254 252 250
294 305 313 320 324 326 326 325 325 324 323 322 321 319 318 315 314 312 311 310 309 307 305 304 303 302 300 298 296 294 293 291 289 288 288 286 285 285 286 286 286 285 284 284 283 282 282 282 281 279 277 275 272 270 269 268 267 266 265 265 264 262 259 258 257 255 254 252 250
295 305 313 319 322 323 322 322 322 321 319 319 317 316 315 313 312 310 309 307 306 304 303 303 301 299 298 296 294 292 290 289 287 286 285 284 284 284 284 284 283 283 283 282 282 281 280 280 278 276 274 273 271 269 268 268 266 265 264 263 262 260 258 257 256 255 254 253 252
301 310 315 318 319 319 319 319 318 317 316 315 314 313 312 311 310 308 306 304 303 303 303 301 300 298 297 295 293 291 290 288 287 285 284 284 284 283 283 282 282 282 282 282 281 280 279 278 276 274 271 270 269 268 267 267 265 264 263 262 260 259 257 256 255 255 254 253 253
304 310 313 315 315 315 315 315 314 314 313 312 311 310 309 309 308 306 305 303 303 302 302 301 299 298 297 295 294 291 290 288 287 285 284 284 284 283 282 281 281 281 281 281 281 280 278 277 273 271 269 268 267 266 265 264 263 262 261 261 260 260 258 256 255 255 254 253 253
301 306 308 310 311 311 312 313 313 312 312 310 310 309 308 308 307 306 305 304 302 302 301 299 298 298 297 296 294 292 290 288 288 286 285 284 284 283 283 283 282 281 280 280 279 278 276 274 270 269 268 267 266 265 264 262 261 260 260 260 261 261 259 257 256 254 254 254 253
296 300 303 307 308 310 312 312 313 312 311 310 310 310 310 309 308 307 305 304 303 302 302 299 298 298 298 296 295 293 291 290 289 287 286 284 284 283 282 282 281 280 279 278 277 276 274 271 268 267 267 265 265 264 264 264 262 261 260 261 261 261 260 259 257 256 255 254 253
290 298 304 308 311 313 314 315 315 314 312 311 311 312 312 311 310 308 306 305 304 303 302 301 300 299 298 296 295 293 292 291 290 289 288 286 285 285 284 283 282 282 280 279 278 276 274 272 269 267 266 265 264 264 264 264 263 261 260 260 260 260 260 259 258 257 256 255 254
291 302 309 313 315 317 318 318 317 316 313 311 312 313 313 312 310 309 308 307 306 303 302 301 301 299 297 295 294 293 293 292 291 291 290 289 288 286 285 284 283 282 281 280 279 278 276 273 271 269 268 267 266 264 264 263 262 261 260 259 259 259 259 259 258 257 257 256 255
302 311 317 320 321 322 322 322 320 317 314 312 313 314 313 312 310 309 309 307 305 303 302 301 300 298 297 296 295 296 295 294 293 292 291 290 289 288 286 285 283 282 281 280 279 277 275 273 271 270 269 268 267 266 264 263 262 262 261 260 259 258 258 258 257 257 256 256 255
315 321 323 325 327 327 327 325 323 319 317 315 315 315 313 312 310 309 308 307 305 304 303 302 301 300 299 298 298 297 297 296 295 293 292 290 289 288 287 286 284 283 282 280 279 277 275 273 272 271 270 270 269 267 266 265 263 263 262 261 260 259 258 257 257 256 256 256 255
325 328 329 331 331 330 329 327 324 322 320 317 317 316 314 312 311 310 308 307 306 305 304 304 303 301 300 299 299 298 297 296 295 294 292 290 290 289 288 287 285 284 283 281 280 278 276 274 273 272 271 271 270 269 267 266 265 264 264 263 262 260 259 258 257 257 256 255 255
330 332 333 334 333 332 329 328 325 323 321 318 317 315 314 313 312 310 309 308 307 306 305 304 303 302 301 300 299 298 297 296 295 294 292 291 290 289 288 288 286 285 284 283 281 279 277 275 274 273 272 271 271 270 269 267 266 265 264 263 263 262 261 260 259 258 257 256 255
333 335 335 335 334 332 330 327 325 322 319 317 316 315 314 313 312 311 310 309 308 307 306 305 304 303 303 302 301 300 299 298 296 295 293 292 291 291 290 289 288 286 285 284 282 280 278 276 275 274 273 272 271 271 269 268 267 266 264 264 263 262 262 261 260 259 258 256 255
334 335 336 335 334 331 328 325 323 320 318 317 316 315 314 313 312 312 311 309 308 307 306 305 305 304 304 303 302 301 300 299 297 296 294 293 292 292 291 290 289 288 286 285 283 282 280 278 276 275 274 273 272 271 270 269 268 266 265 264 263 263 262 262 261 260 259 257 256
334 335 336 334 332 329 326 323 321 319 318 316 315 315 314 313 312 312 311 310 309 308 306 305 305 304 304 303 302 301 300 299 297 296 294 293 293 292 291 290 289 288 287 285 284 282 281 280 278 276 275 273 272 271 270 269 268 267 266 265 264 263 262 262 261 260 259 258 257
335 335 334 332 329 326 324 322 320 319 317 316 315 314 314 313 313 312 311 310 310 308 307 305 305 305 304 303 302 301 300 299 297 296 294 294 293 292 291 290 289 288 287 285 284 282 281 280 279 277 275 274 272 271 270 269 268 267 266 265 264 264 263 262 261 260 259 258 258
334 333 331 329 326 325 323 321 320 318 317 316 316 315 314 314 313 313 311 311 310 308 307 305 305 305 304 303 302 301 300 299 298 296 295 294 293 292 291 290 290 288 287 285 284 282 281 280 279 277 276 274 273 272 271 270 269 268 267 266 265 264 263 262 261 261 260 259 258
332 331 329 327 325 324 322 321 320 319 318 317 316 315 315 314 314 313 312 311 310 309 307 306 305 305 304 303 303 301 300 300 298 296 295 294 293 292 291 290 290 288 287 285 284 282 281 280 278 277 276 274 273 272 271 270 269 268 267 266 265 264 263 263 262 261 260 259 258
330 329 328 326 325 323 322 321 320 319 318 317 317 316 315 315 314 313 312 311 310 309 308 307 305 304 303 302 302 301 300 300 298 296 295 293 292 292 291 291 289 288 286 285 284 282 281 279 277 276 275 274 272 271 270 269 268 268 267 266 265 264 264 263 262 262 261 260 259
329 328 327 326 325 324 322 321 321 320 319 318 317 317 316 315 314 313 312 311 309 308 308 307 305 304 302 301 301 300 299 299 298 296 295 293 292 292 291 291 289 287 286 285 283 281 280 279 278 276 275 273 272 271 270 269 268 267 266 266 265 264 263 262 262 261 260 260 259
329 328 327 325 324 324 323 322 321 320 319 318 317 317 316 315 314 313 312 311 309 308 307 306 305 304 303 301 301 299 298 298 297 296 295 294 293 293 292 291 289 287 285 284 282 280 279 279 279 278 276 275 273 272 271 269 268 267 266 266 265 264 264 262 261 260 259 258 258
328 327 326 325 324 324 323 322 321 320 319 318 317 317 316 315 314 313 312 310 309 308 307 306 305 304 303 302 301 300 298 296 296 296 296 296 295 294 293 291 289 287 285 283 282 280 279 278 277 277 277 276 275 274 272 271 269 268 267 266 266 266 265 264 262 260 259 258 257
327 326 325 325 325 324 323 322 321 319 318 317 317 316 315 314 313 312 311 309 308 308 307 306 306 305 304 303 302 300 298 297 296 296 296 296 295 294 293 291 289 287 285 283 281 280 279 277 276 275 275 275 274 274 273 272 270 269 268 267 266 266 265 265 264 262 261 259 257
327 326 325 325 324 323 322 321 320 319 318 317 316 315 314 313 313 311 310 309 308 308 307 306 306 305 304 303 302 300 299 299 298 297 296 295 294 294 292 291 289 286 284 282 281 280 279 278 276 275 274 273 272 272 272 272 271 270 268 267 266 265 264 264 263 263 262 261 259
326 325 325 325 324 323 322 321 320 318 317 316 315 314 313 313 312 310 309 309 308 308 307 306 307 305 304 304 302 300 300 299 298 297 296 294 294 293 292 290 288 286 284 283 282 281 280 279 278 277 275 273 272 272 272 271 271 270 268 267 266 264 263 262 262 262 261 261 260
326 325 325 324 323 322 321 320 319 317 316 315 314 313 312 312 311 310 310 310 309 308 307 307 307 305 304 303 302 301 300 299 298 297 296 294 293 292 291 289 288 286 285 284 283 282 282 281 279 278 277 275 273 273 272 271 270 269 268 266 265 263 262 261 261 260 260 259 259
325 325 324 323 322 321 320 319 317 316 315 314 313 313 312 312 311 311 311 310 309 307 306 306 305 304 302 301 301 300 300 299 298 297 296 294 293 292 291 289 288 287 286 286 285 284 283 282 281 280 279 277 274 272 271 270 269 267 266 265 264 263 261 261 260 259 258 258 257
325 324 323 322 321 320 318 317 316 315 314 313 313 312 312 312 311 311 311 310 308 307 306 305 303 301 300 300 300 300 299 299 299 298 296 294 293 292 292 290 289 288 288 287 286 286 285 284 283 282 280 278 276 273 270 269 268 266 265 264 262 261 261 260 259 258 257 256 255
324 323 323 322 320 319 318 317 316 315 314 313 313 313 312 312 311 311 310 309 308 307 306 305 304 303 302 302 301 301 300 299 298 297 296 294 293 292 292 291 290 289 289 288 288 287 286 285 284 283 281 280 278 274 272 270 268 266 264 263 262 260 259 258 258 257 256 254 253
323 323 322 321 319 318 317 317 316 315 314 314 313 313 312 312 312 311 310 310 308 307 305 304 303 303 303 302 302 302 300 299 298 296 295 295 293 292 292 292 292 291 290 290 289 289 288 287 286 284 283 282 279 276 273 270 268 266 264 263 261 259 257 256 256 255 254 253 252
323 323 322 321 319 318 318 317 316 315 314 314 314 314 313 313 312 312 311 310 308 307 305 303 302 301 301 301 301 300 300 298 297 296 295 295 294 293 292 292 292 292 291 291 291 290 289 288 287 286 284 283 281 278 275 271 268 266 264 263 261 259 257 256 255 254 253 252 251
323 323 322 321 320 319 318 317 317 316 315 314 314 314 314 314 312 311 310 309 308 306 304 302 301 301 301 301 300 299 298 297 296 296 296 295 295 294 293 292 292 292 292 292 291 291 291 290 288 287 286 284 282 279 275 272 268 265 264 262 260 259 258 256 254 252 251 250 249
324 323 321 320 320 319 318 317 317 316 316 315 315 315 314 314 312 311 310 309 308 306 305 304 304 304 303 302 301 300 298 297 296 296 296 295 295 294 293 292 293 294 294 293 293 292 292 291 290 288 287 285 282 279 275 272 269 266 263 261 260 259 258 256 253 251 250 250 248
324 323 321 320 319 318 317 317 317 316 315 315 315 314 314 313 312 311 310 310 309 307 306 306 305 305 304 303 302 300 298 298 297 296 296 295 295 294 293 293 294 295 295 295 295 294 293 292 291 289 287 285 282 279 276 273 269 267 264 261 259 258 257 255 253 250 249 248 247
324 323 321 319 318 317 317 317 316 315 315 315 314 314 313 313 311 311 310 310 309 308 307 306 305 304 303 302 301 299 298 297 296 296 295 295 295 294 293 293 294 295 296 296 296 296 295 293 292 290 288 285 282 280 277 273 270 267 265 263 261 258 256 253 252 250 247 246 245
324 323 321 319 317 316 316 316 315 315 314 314 314 313 313 312 311 310 309 309 308 307 306 305 304 303 302 302 301 300 299 298 297 296 296 295 295 295 294 293 293 294 295 296 297 298 296 294 293 292 290 287 284 280 277 273 270 268 265 264 262 260 257 253 251 249 247 244 245
324 323 321 319 317 316 316 316 315 314 314 314 313 313 312 311 309 308 308 308 307 306 305 304 303 302 302 302 301 300 300 299 299 298 297 296 296 297 296 294 293 293 294 295 297 297 296 295 294 293 291 289 286 283 279 275 273 271 269 267 265 262 259 255 251 248 246 244 244
324 323 321 320 318 317 317 316 315 315 315 314 312 311 311 310 308 308 308 308 307 306 305 304 303 302 302 302 301 300 300 299 300 299 299 299 298 298 298 295 294 294 294 295 297 298 298 296 295 294 293 291 289 287 285 283 281 279 278 276 273 269 265 260 254 249 245 242 241